User: anonymous   Login
Location: Unspecified
(0.0000°N, 0.0000°E)
Time: 05:15:01
(UTC+00:00)
Language:

SR - Orbit

View from above orbital plane
View from above orbital plane
View from above satellite
View from above satellite

Ground track
Ground track

The orbit data is extracted from the following two-line orbital elements,

1 00046U 60007B   16120.50677042  .00000115  00000-0  45978-4 0  9998
2 00046  66.6894 165.3016 0210902 178.6105 181.5637 14.48865638920325
Epoch (UTC): 29 April 2016 12:09:44
Eccentricity: 0.0210902
inclination: 66.6894°
perigee height: 579 km
apogee height: 879 km
right ascension of ascending node: 165.3016°
argument of perigee: 178.6105°
revolutions per day: 14.48865638
mean anomaly at epoch: 181.5637°
orbit number at epoch: 92032

The dashed part of the orbit path shows where the satellite is in the earth's shadow,  

DLR